Weather History for Ruston, LA

Change the Weather History Date:

Monday, April 1, 2013

  Actual Average Record
Temperature  
Mean Temperature 60 °F -  
Max Temperature 76 °F 73 °F 90 °F (1974)
Min Temperature 45 °F 47 °F 30 °F (1987)
Degree Days  
Heating Degree Days 4    
Growing Degree Days 10 (Base 50)    
Moisture  
Dew Point 48 °F    
Average Humidity 69    
Maximum Humidity 100    
Minimum Humidity 25    
Precipitation  
Precipitation 0.01 in - - ()
Sea Level Pressure  
Sea Level Pressure 30.08 in    
Wind  
Wind Speed 1 mph (ESE)    
Max Wind Speed 7 mph    
Max Gust Speed -    
Visibility 7 miles    
Events Fog    
Averages and records for this station are not official NWS values.
T = Trace of Precipitation, MM = Missing Value Source: NWS Daily Summary

Daily Weather History Graph

Daily Weather History Graph

Search for Another Location

Airport:

Trip Planner

Search our weather history database for the weather conditions in past years. The results will help you decide how hot, cold, wet, or windy it might be!

Date:

Astronomy

Apr. 01, 2013 Rise Set
Actual Time 6:58 AM CDT 7:30 PM CDT
Civil Twilight 6:33 AM CDT 7:55 PM CDT
Nautical Twilight 6:04 AM CDT 8:24 PM CDT
Astronomical Twilight 5:34 AM CDT 8:54 PM CDT
Moon 12:24 AM CDT (4/1) 10:59 AM CDT (4/1)
Length of Visible Light 13h 21m
Length of Day
12h 32m
Waning Gibbous, 67% of the Moon is Illuminated
Apr 1
Waning Gibbous
Apr 2
Last Quarter
Apr 10
New
Apr 18
First Quarter
Apr 25
Full

Hourly Weather History & Observations

Time (CDT) Temp. Dew Point Humidity Pressure Visibility Wind Dir Wind Speed Gust Speed Precip Events Conditions
12:15 AM 51.1 °F 51.1 °F 100% 30.00 in 0.8 mi Calm Calm - N/A   Mist
12:35 AM 50.9 °F 50.9 °F 100% 30.00 in 1.5 mi Calm Calm - N/A   Mist
12:55 AM 50.7 °F 50.7 °F 100% 30.01 in 7.0 mi Calm Calm - N/A   Clear
1:15 AM 50.4 °F 50.4 °F 100% 30.01 in 5.0 mi Calm Calm - N/A   Clear
1:35 AM 50.4 °F 50.4 °F 100% 30.02 in 4.0 mi Calm Calm - N/A   Clear
2:15 AM 49.3 °F 49.3 °F 100% 30.02 in 0.2 mi Calm Calm - N/A Fog Fog
2:35 AM 50.9 °F 50.9 °F 100% 30.03 in 0.2 mi Calm Calm - N/A Fog Fog
3:15 AM 51.1 °F 51.1 °F 100% 30.03 in 0.2 mi Calm Calm - N/A Fog Fog
3:35 AM 50.5 °F 50.5 °F 100% 30.03 in 0.2 mi Calm Calm - N/A Fog Fog
3:55 AM 50.2 °F 50.2 °F 100% 30.03 in 0.5 mi Calm Calm - N/A Fog Fog
4:15 AM 50.2 °F 50.2 °F 100% 30.04 in 0.2 mi Calm Calm - N/A Fog Fog
4:35 AM 50.9 °F 50.9 °F 100% 30.04 in 0.2 mi Calm Calm - N/A Fog Fog
4:55 AM 51.4 °F 51.4 °F 100% 30.04 in 0.2 mi Calm Calm - N/A Fog Fog
5:15 AM 50.9 °F 50.9 °F 100% 30.04 in 0.2 mi Calm Calm - N/A Fog Fog
5:35 AM 50.2 °F 50.2 °F 100% 30.05 in 0.2 mi Calm Calm - N/A Fog Fog
6:15 AM 48.4 °F 48.4 °F 100% 30.07 in 0.2 mi Calm Calm - N/A Fog Fog
6:35 AM 47.1 °F 47.1 °F 100% 30.07 in 0.2 mi Calm Calm - 0.01 in Fog Fog
7:15 AM 45.7 °F 45.7 °F 100% 30.09 in 1.5 mi Calm Calm - N/A   Scattered Clouds
7:35 AM 45.9 °F 45.9 °F 100% 30.10 in 7.0 mi Calm Calm - N/A   Scattered Clouds
8:15 AM 49.8 °F 49.8 °F 100% 30.11 in 10.0 mi Calm Calm - N/A   Mostly Cloudy
8:35 AM 52.5 °F 52.5 °F 100% 30.11 in 7.0 mi Calm Calm - N/A   Scattered Clouds
9:15 AM 57.7 °F 57.7 °F 100% 30.13 in 10.0 mi Calm Calm - N/A   Clear
9:35 AM 59.2 °F 59.2 °F 100% 30.14 in 10.0 mi Calm Calm - N/A   Clear
9:55 AM 60.1 °F 60.1 °F 100% 30.15 in 10.0 mi SSE 3.5 mph - N/A   Clear
10:15 AM 59.2 °F 59.2 °F 100% 30.16 in 10.0 mi ESE 3.5 mph - N/A   Clear
10:35 AM 62.1 °F 62.1 °F 100% 30.15 in 10.0 mi ESE 3.5 mph - N/A   Clear
10:55 AM 67.1 °F 52.0 °F 58% 30.15 in 10.0 mi East 4.6 mph - N/A   Clear
11:15 AM 68.7 °F 49.3 °F 50% 30.15 in 10.0 mi ENE 6.9 mph - N/A   Clear
11:35 AM 69.3 °F 46.0 °F 43% 30.15 in 10.0 mi ENE 5.8 mph - N/A   Clear
12:15 PM 71.1 °F 44.2 °F 38% 30.14 in 10.0 mi ENE 4.6 mph - N/A   Clear
12:35 PM 72.1 °F 43.2 °F 35% 30.13 in 10.0 mi ENE 6.9 mph - N/A   Clear
12:55 PM 71.4 °F 40.6 °F 33% 30.13 in 10.0 mi West 3.5 mph - N/A   Clear
1:15 PM 73.0 °F 43.0 °F 34% 30.12 in 10.0 mi North 6.9 mph - N/A   Clear
1:35 PM 73.6 °F 42.1 °F 32% 30.12 in 10.0 mi ENE 4.6 mph - N/A   Clear
1:55 PM 73.9 °F 42.4 °F 32% 30.11 in 10.0 mi East 4.6 mph - N/A   Scattered Clouds
2:15 PM 74.1 °F 43.7 °F 34% 30.10 in 10.0 mi SW 4.6 mph - N/A   Mostly Cloudy
2:35 PM 74.3 °F 40.8 °F 30% 30.09 in 10.0 mi East 3.5 mph - N/A   Overcast
3:15 PM 74.5 °F 39.9 °F 29% 30.08 in 10.0 mi Calm Calm - N/A   Clear
3:35 PM 75.6 °F 40.1 °F 28% 30.08 in 10.0 mi SE 5.8 mph - N/A   Clear
3:55 PM 75.2 °F 40.5 °F 29% 30.07 in 10.0 mi NW 3.5 mph - N/A   Clear
4:15 PM 76.1 °F 39.7 °F 27% 30.07 in 10.0 mi ESE 5.8 mph - N/A   Clear
4:35 PM 75.7 °F 37.8 °F 25% 30.06 in 10.0 mi ENE 3.5 mph - N/A   Clear
4:55 PM 76.1 °F 39.7 °F 27% 30.06 in 10.0 mi Calm Calm - N/A   Clear
5:15 PM 76.1 °F 40.3 °F 28% 30.05 in 10.0 mi Calm Calm - N/A   Clear
5:35 PM 75.6 °F 39.6 °F 27% 30.05 in 10.0 mi West 3.5 mph - N/A   Clear
5:55 PM 75.7 °F 39.4 °F 27% 30.05 in 10.0 mi East 5.8 mph - N/A   Clear
6:15 PM 75.2 °F 39.2 °F 27% 30.04 in 10.0 mi East 3.5 mph - N/A   Clear
6:35 PM 75.0 °F 40.5 °F 29% 30.04 in 10.0 mi Calm Calm - N/A   Clear
6:55 PM 73.8 °F 43.3 °F 34% 30.05 in 10.0 mi Calm Calm - N/A   Clear
7:15 PM 70.7 °F 46.9 °F 43% 30.05 in 10.0 mi Calm Calm - N/A   Clear
7:35 PM 67.1 °F 49.5 °F 53% 30.05 in 10.0 mi Calm Calm - N/A   Clear
7:55 PM 65.3 °F 49.1 °F 56% 30.05 in 10.0 mi ESE 3.5 mph - N/A   Clear
8:15 PM 66.6 °F 47.5 °F 50% 30.05 in 10.0 mi SE 3.5 mph - N/A   Clear
8:35 PM 61.3 °F 51.1 °F 69% 30.06 in 10.0 mi Calm Calm - N/A   Clear
8:55 PM 58.1 °F 52.9 °F 83% 30.07 in 10.0 mi Calm Calm - N/A   Clear
9:15 PM 56.7 °F 53.8 °F 90% 30.08 in 10.0 mi Calm Calm - N/A   Clear
9:35 PM 56.7 °F 53.6 °F 89% 30.09 in 10.0 mi Calm Calm - N/A   Clear
9:55 PM 55.8 °F 53.8 °F 93% 30.09 in 7.0 mi SE 4.6 mph - N/A   Clear
10:15 PM 62.1 °F 50.2 °F 65% 30.09 in 10.0 mi SE 4.6 mph - N/A   Clear
10:35 PM 62.6 °F 49.5 °F 62% 30.10 in 10.0 mi SE 4.6 mph - N/A   Clear
10:55 PM 60.3 °F 50.2 °F 69% 30.11 in 10.0 mi SSE 4.6 mph - N/A   Clear
11:15 PM 59.0 °F 50.5 °F 73% 30.10 in 10.0 mi SSE 4.6 mph - N/A   Clear
11:35 PM 59.2 °F 50.0 °F 72% 30.10 in 10.0 mi SSE 4.6 mph - N/A   Clear
11:55 PM 56.3 °F 50.2 °F 80% 30.10 in 10.0 mi SSE 3.5 mph - N/A   Clear